Change the Weather History Date:

Friday, November 22, 2013

  Actual Average Record
Temperature  
Mean Temperature -10 °F -  
Max Temperature 19 °F 15 °F 42 °F (2002)
Min Temperature -38 °F 0 °F -38 °F (2013)
Degree Days  
Heating Degree Days 74    
Moisture  
Dew Point -8 °F    
Average Humidity 81    
Maximum Humidity 92    
Minimum Humidity 62    
Precipitation  
Precipitation 0.24 in - - ()
Sea Level Pressure  
Sea Level Pressure 29.47 in    
Wind  
Wind Speed 1 mph (North)    
Max Wind Speed 9 mph    
Max Gust Speed -    
Visibility 3 miles    
Events Snow    
Averages and records for this station are not official NWS values.
T = Trace of Precipitation, MM = Missing Value Source: NWS Daily Summary

Daily Weather History Graph

Daily Weather History Graph

Search for Another Location

Airport or City:

Trip Planner

Search our weather history database for the weather conditions in past years. The results will help you decide how hot, cold, wet, or windy it might be!

Date:

Astronomy

Nov. 22, 2013 Rise Set
Actual Time 9:15 AM AKST 3:40 PM AKST
Civil Twilight 8:17 AM AKST 4:37 PM AKST
Nautical Twilight 7:19 AM AKST 5:35 PM AKST
Astronomical Twilight 6:26 AM AKST 6:28 PM AKST
Moon 8:52 PM AKST (11/22) 12:37 PM AKST (11/22)
Length of Visible Light 8h 20m
Length of Day
6h 25m
Waning Gibbous, 77% of the Moon is Illuminated
Nov 22
Waning Gibbous
Nov 25
Last Quarter
Dec 2
New
Dec 9
First Quarter
Dec 17
Full

Hourly Weather History & Observations

Time (AKST) Temp. Windchill Dew Point Humidity Pressure Visibility Wind Dir Wind Speed Gust Speed Precip Events Conditions
12:16 AM -15.0 °F -25.0 °F -20.0 °F 78% 29.58 in 2.5 mi ESE 3.5 mph - 0.01 in Snow Light Snow
12:23 AM -15.0 °F - -20.9 °F 75% 29.57 in 3.0 mi Calm Calm - 0.01 in Snow Light Snow
12:32 AM -15.0 °F - -20.0 °F 78% 29.56 in 2.5 mi Calm Calm - 0.01 in Snow Light Snow
12:44 AM -15.0 °F - -20.0 °F 78% 29.57 in 4.0 mi Calm Calm - 0.01 in Snow Light Snow
12:53 AM -15.0 °F - -20.0 °F 78% 29.83 in 4.0 mi Calm Calm - 0.01 in Snow Light Snow
1:16 AM -14.1 °F - -20.0 °F 75% 29.55 in 2.5 mi Calm Calm - 0.00 in Snow Light Snow
1:39 AM -14.1 °F - -20.0 °F 75% 29.54 in 1.2 mi Calm Calm - 0.01 in Snow Light Snow
1:53 AM -14.1 °F -23.9 °F -18.9 °F 79% 29.78 in 1.0 mi ESE 3.5 mph - 0.02 in Snow Light Snow
2:09 AM -14.1 °F - -18.9 °F 79% 29.53 in 1.0 mi Calm Calm - 0.02 in Snow Light Snow
2:19 AM -14.1 °F - -18.9 °F 79% 29.52 in 1.0 mi Calm Calm - 0.03 in Snow Light Snow
2:35 AM -14.1 °F - -18.9 °F 79% 29.51 in 0.8 mi Calm Calm - 0.04 in Snow Light Snow
3:03 AM -13.0 °F - -18.0 °F 78% 29.50 in 1.0 mi Calm Calm - 0.01 in Snow Light Snow
3:21 AM -13.0 °F - -18.0 °F 78% 29.50 in 0.8 mi Calm Calm - 0.03 in Snow Light Snow
3:44 AM -11.9 °F - -18.0 °F 74% 29.50 in 1.0 mi Calm Calm - 0.05 in Snow Light Snow
3:53 AM -11.9 °F - -17.0 °F 78% 29.73 in 1.0 mi Calm Calm - 0.06 in Snow Light Snow
4:03 AM -11.9 °F - -17.0 °F 78% 29.49 in 1.2 mi Calm Calm - 0.01 in Snow Light Snow
4:13 AM -11.9 °F - -17.0 °F 78% 29.48 in 1.0 mi Calm Calm - 0.02 in Snow Light Snow
4:22 AM -13.0 °F -22.7 °F -17.0 °F 82% 29.48 in 0.8 mi SE 3.5 mph - 0.02 in Snow Light Snow
4:53 AM -11.9 °F - -17.0 °F 78% 29.72 in 1.0 mi Calm Calm - 0.05 in Snow Light Snow
5:12 AM -11.9 °F - -17.0 °F 78% 29.47 in 1.2 mi Calm Calm - 0.02 in Snow Light Snow
5:53 AM -11.0 °F - -16.1 °F 78% 29.69 in 1.0 mi Calm Calm - 0.05 in Snow Light Snow
6:53 AM -9.9 °F - -15.0 °F 78% 29.66 in 1.2 mi Calm Calm - 0.03 in Snow Light Snow
7:53 AM -9.0 °F - -14.1 °F 79% 29.63 in 2.0 mi Calm Calm - 0.03 in Snow Light Snow
8:09 AM -8.0 °F - -13.0 °F 79% 29.39 in 1.8 mi Calm Calm - 0.01 in Snow Light Snow
8:18 AM -8.0 °F -16.9 °F -13.0 °F 79% 29.39 in 2.0 mi NW 3.5 mph - 0.01 in Snow Light Snow
8:48 AM -7.6 °F - -11.2 °F 84% 29.37 in 1.5 mi Calm Calm - 0.01 in Snow Light Snow
8:53 AM -7.1 °F - -11.9 °F 79% 29.59 in 1.5 mi Calm Calm - 0.02 in Snow Light Snow
9:53 AM -5.1 °F - -9.9 °F 80% 29.55 in 0.8 mi Calm Calm - 0.04 in Snow Light Snow
10:53 AM -2.9 °F - -8.0 °F 79% 29.51 in 0.8 mi Calm Calm - 0.03 in Snow Light Snow
11:02 AM -2.9 °F - -8.0 °F 79% 29.30 in 1.0 mi Calm Calm - 0.00 in Snow Light Snow
11:53 AM -2.0 °F - -7.1 °F 79% 29.49 in 1.2 mi Calm Calm - 0.02 in Snow Light Snow
12:23 PM -2.9 °F - -7.1 °F 82% 29.28 in 0.8 mi Calm Calm - 0.01 in Snow Light Snow
12:43 PM -2.9 °F -11.2 °F -7.1 °F 82% 29.28 in 1.0 mi Variable 3.5 mph - 0.02 in Snow Light Snow
12:53 PM -2.0 °F - -7.1 °F 79% 29.48 in 1.0 mi Calm Calm - 0.03 in Snow Light Snow
1:38 PM 1.0 °F -10.3 °F -4.0 °F 79% 29.26 in 2.0 mi Variable 5.8 mph - 0.01 in Snow Light Snow
1:49 PM -0.4 °F - -4.0 °F 85% 29.26 in 1.8 mi Calm Calm - 0.01 in Snow Light Snow
1:53 PM -0.0 °F - -2.9 °F 88% 29.46 in 2.0 mi Calm Calm - 0.01 in Snow Light Snow
2:12 PM 1.0 °F -6.7 °F -2.9 °F 83% 29.27 in 1.2 mi South 3.5 mph - 0.01 in Snow Light Snow
2:50 PM 1.4 °F -9.9 °F -2.2 °F 85% 29.28 in 2.0 mi East 5.8 mph - 0.02 in Snow Light Snow
2:51 PM 1.4 °F -8.3 °F -2.2 °F 85% 29.28 in 1.8 mi Variable 4.6 mph - 0.02 in Snow Light Snow
2:53 PM 1.0 °F - -2.9 °F 83% 29.47 in 1.5 mi Calm Calm - 0.02 in Snow Light Snow
3:37 PM 1.9 °F - -2.0 °F 83% 29.28 in 2.5 mi Calm Calm - 0.00 in   Overcast
3:45 PM 3.0 °F - -2.0 °F 80% 29.28 in 4.0 mi Calm Calm - 0.00 in   Haze
3:53 PM 3.0 °F - -0.9 °F 84% 29.47 in 2.5 mi Calm Calm - 0.00 in   Overcast
3:58 PM 3.0 °F -4.4 °F -0.9 °F 84% 29.28 in 3.0 mi North 3.5 mph - N/A   Overcast
4:43 PM 6.1 °F -4.3 °F 3.0 °F 87% 29.27 in 2.0 mi North 5.8 mph - N/A   Overcast
4:51 PM 6.8 °F -3.5 °F 3.2 °F 85% 29.27 in 1.2 mi NNW 5.8 mph - N/A   Overcast
4:53 PM 7.0 °F -1.7 °F 5.0 °F 92% 29.46 in 1.0 mi NW 4.6 mph - N/A   Overcast
5:15 PM 9.0 °F -4.2 °F 6.1 °F 88% 29.27 in 3.0 mi North 9.2 mph - N/A   Overcast
5:53 PM 10.0 °F 0.4 °F 6.1 °F 84% 29.44 in 10.0 mi NNW 5.8 mph - N/A   Overcast
6:53 PM 10.9 °F 4.7 °F 7.0 °F 84% 29.45 in 10.0 mi Variable 3.5 mph - N/A   Overcast
7:53 PM 10.9 °F 1.4 °F 9.0 °F 92% 29.44 in 6.0 mi NW 5.8 mph - 0.00 in   Overcast
8:53 PM 12.0 °F - 10.0 °F 92% 29.44 in 6.0 mi Calm Calm - N/A   Overcast
9:06 PM 12.9 °F - 10.9 °F 92% 29.27 in 10.0 mi Calm Calm - N/A   Overcast
9:53 PM 17.1 °F - 14.0 °F 88% 29.42 in 10.0 mi Calm Calm - N/A   Overcast
10:53 PM 19.0 °F 13.9 °F 16.0 °F 88% 29.43 in 10.0 mi North 3.5 mph - N/A   Overcast
11:53 PM 17.1 °F 7.6 °F 14.0 °F 88% 29.44 in 10.0 mi North 6.9 mph - N/A   Overcast